This is the latest recevied weather packets stored in our database for station/object CQ0XSM-11. If no packets are shown the sender has not sent any weather packets the latest 1 day(s).
| Time | Temp. | Humidity | Pressure | Rain* | Wind** | Luminosity | Snow |
|---|---|---|---|---|---|---|---|
| 1778070941 | 17.22° C | 40% | 993.1 hPa | 0 mm | - | - | - |
| 1778070329 | 16.67° C | 39% | 993.3 hPa | 0 mm | - | - | - |
| 1778069454 | 16.11° C | 43% | 993.4 hPa | 0 mm | - | - | - |
| 1778069116 | 16.11° C | 40% | 993.5 hPa | 0 mm | - | - | - |
| 1778068510 | 16.11° C | 43% | 993.5 hPa | 0 mm | - | - | - |
| 1778067297 | 16.67° C | 41% | 993.8 hPa | 0 mm | - | - | - |
| 1778067015 | 16.67° C | 45% | 993.6 hPa | 0 mm | - | - | - |
| 1778066084 | 15.56° C | 48% | 994 hPa | 0 mm | - | - | - |
| 1778064579 | 15.56° C | 47% | 994 hPa | 0 mm | - | - | - |
| 1778063968 | 14.44° C | 54% | 994.1 hPa | 0 mm | - | - | - |
| 1778063660 | 14.44° C | 51% | 994.2 hPa | 0 mm | - | - | - |
| 1778063364 | 14.44° C | 55% | 994.2 hPa | 0 mm | - | - | - |
| 1778062756 | 13.89° C | 55% | 994.3 hPa | 0 mm | - | - | - |
| 1778062446 | 13.89° C | 58% | 994.3 hPa | 0 mm | - | - | - |
| 1778062168 | 13.89° C | 59% | 994.2 hPa | 0 mm | - | - | - |
| 1778061239 | 14.44° C | 59% | 994.3 hPa | 0 mm | - | - | - |
| 1778060625 | 14.44° C | 63% | 994.3 hPa | 0 mm | - | - | - |
| 1778059414 | 13.33° C | 72% | 994.4 hPa | 0 mm | - | - | - |
| 1778059118 | 12.78° C | 75% | 994.4 hPa | 0 mm | - | - | - |
| 1778058514 | 12.78° C | 77% | 994.4 hPa | 0 mm | - | - | - |
| 1778058201 | 12.78° C | 79% | 994.5 hPa | 0 mm | - | - | - |
| 1778057604 | 11.67° C | 85% | 994.6 hPa | 0 mm | - | - | - |
| 1778057305 | 11.67° C | 86% | 994.7 hPa | 0 mm | - | - | - |
| 1778056395 | 11.11° C | 88% | 994.6 hPa | 0 mm | - | - | - |
| 1778055801 | 11.11° C | 91% | 994.7 hPa | 0 mm | - | - | - |
* Rain since midnight (hover to see other rain measurements)
** Current wind speed in m/s (hover to see current wind gust speed)